Theta_e
355 352 354 352 349 350 351 352 355 354 355 356 353 350 348 346 346 344 339 337 338 340
355 356 352 354 354 350 353 352 355 354 354 354 352 350 349 345 342 340 339 339 340 338
354 357 353 354 351 349 352 351 352 353 354 351 350 349 345 342 341 337 339 338 337 334
356 354 352 352 348 349 350 350 350 353 352 349 346 343 342 340 338 336 337 334 333 328
357 350 348 342 341 332 348 350 351 352 350 347 342 342 342 337 337 336 332 331 327 324
351 350 339 333 334 332 329 341 351 350 346 344 343 342 340 337 336 334 330 326 323 321
347 346 339 335 334 334 333 326 335 346 345 344 342 340 338 335 332 328 326 323 321 320
344 344 340 335 332 332 329 328 332 339 345 340 338 335 332 330 326 322 318 318 312 309
342 340 337 333 331 328 328 329 335 324 338 336 333 312 316 322 321 319 316 309 307 307
346 346 343 337 334 334 334 335 332 336 333 325 318 308 309 313 319 317 314 311 311 310
346 347 345 344 341 340 339 335 331 327 321 318 312 305 306 310 319 318 317 317 314 308
342 346 343 337 334 333 330 328 323 319 316 313 310 302 305 314 317 310 306 303 311 303
339 339 333 330 329 328 327 323 319 317 315 307 305 298 302 312 313 308 304 299 295 295
332 329 327 327 326 324 321 318 316 313 312 310 306 300 299 305 311 306 304 300 296 293
Wind_Speed
19 15 13 16 14 14 13 12 13 14 12 11 13 11 10 8 6 6 7 6 4 4
18 19 17 14 10 11 11 12 16 16 14 14 14 13 11 6 6 7 6 5 4 5
22 21 17 9 12 15 12 18 19 18 17 16 15 13 11 8 10 9 6 5 6 6
19 19 18 11 10 8 11 16 19 18 18 17 15 13 10 9 11 10 8 8 6 7
17 14 13 6 6 16 6 13 19 19 17 15 15 13 10 13 10 9 10 9 8 7
13 15 13 12 9 8 6 14 14 18 18 17 15 14 11 12 12 10 10 10 8 6
16 16 16 16 16 16 13 10 27 8 16 18 17 15 13 12 12 11 9 9 8 6
17 16 16 16 18 22 20 15 28 14 13 12 14 12 14 13 13 12 12 12 11 10
20 19 18 14 15 15 16 22 19 17 13 14 11 17 16 15 14 13 13 12 10 10
20 17 16 16 20 24 26 18 17 17 13 12 13 19 17 16 13 12 13 11 10 8
21 21 17 17 17 15 16 15 14 14 15 15 11 19 16 15 14 12 11 7 11 13
14 21 19 16 17 15 17 15 14 15 16 16 11 14 15 16 14 14 11 10 12 12
9 14 19 19 18 15 17 15 14 15 15 15 10 11 9 15 12 13 10 11 13 17
18 14 15 17 17 17 17 17 15 16 14 12 10 9 10 14 11 10 10 9 8 6
Wind_Direction
205 203 202 195 200 187 182 178 178 180 172 165 152 157 155 159 164 143 132 163 145 105
203 210 210 200 189 178 167 171 174 179 165 161 161 158 159 159 152 146 143 153 130 121
203 209 203 193 182 183 169 176 172 171 162 164 166 158 158 146 140 148 153 143 138 111
203 208 199 206 175 192 179 172 174 167 163 165 160 160 158 147 156 155 149 128 128 95
195 197 199 168 81 30 256 183 173 159 166 160 159 157 164 148 167 156 134 129 127 129
172 185 162 165 131 96 32 317 193 158 161 158 165 150 152 155 149 148 137 134 132 114
174 173 172 184 185 178 232 328 288 187 157 165 151 150 146 147 134 137 134 118 113 97
171 172 174 185 182 177 165 205 242 264 206 149 141 141 140 140 137 132 122 104 93 86
169 179 197 182 184 169 195 213 205 241 157 143 136 124 132 134 132 135 115 107 112 114
151 172 178 177 172 178 192 192 170 181 142 109 120 117 120 130 132 130 118 128 143 141
165 160 162 167 166 148 154 154 133 120 114 110 110 120 133 129 124 117 116 122 98 96
207 141 147 140 128 128 119 117 110 107 110 113 119 126 134 123 114 93 89 69 95 93
118 116 122 123 115 116 114 114 112 111 114 103 100 68 103 118 115 120 116 93 78 72
116 99 106 111 112 117 112 112 113 114 115 96 81 59 75 129 131 137 121 110 94 89